Location: Jackson Park
(37.2862°N, 79.9123°W)
Time: 02:16:44
(UTC+00:00)

Tiros 1 despin weight - Pass Details

Date: 10 May 2026
Orbit: 554 x 591 km, 48.2° (Epoch: 6 June)

Event Time Altitude Azimuth Distance (km) Brightness Sun altitude
Rises 13:35:32 0° 272° (W) 2,735 ? 38.1°
Reaches altitude 10° 13:38:05 10° 285° (WNW) 1,837 ? 38.6°
Maximum altitude 13:41:36 25° 343° (NNW) 1,131 ? 39.3°
Drops below altitude 10° 13:45:06 10° 40° (NE) 1,834 ? 40.0°
Sets 13:47:40 0° 53° (NE) 2,730 ? 40.5°
